Vertical_Velocity
8 10 13 17 16 15 14 14 8 4 4 10 16 17 17 18 18 15 11 8 4 1 1 5 10 8 3 2 1 0 -0 -0 -0 -0 0 1 1 1 1 0 0 -0 -0 -0 -1 -1 -1 -0 -0 -0 -1 -1 -1 -1 -0 -0 -1 -0 -0 -0 -0 -0 -0 -0 -1 -1 -1 -1 -0
12 14 16 18 18 18 17 15 6 -0 -2 5 12 15 15 17 18 18 15 9 4 2 4 10 10 5 1 0 -0 -0 -0 -0 -0 0 1 1 1 1 1 0 0 -0 -0 -0 -1 -1 -0 -0 -0 -0 -1 -1 -1 -1 -0 -1 -1 -0 -0 -0 -0 -0 -0 -1 -1 -1 -1 -1 -1
13 12 13 17 18 16 14 13 6 -1 -3 6 12 13 13 15 18 19 17 8 2 1 2 3 2 1 -0 -1 -1 -1 -1 -0 0 1 1 1 1 1 0 0 0 0 0 -0 -0 -0 -0 -0 -0 -1 -1 -1 -1 -1 -1 -1 -1 -1 -1 -1 -1 -1 -1 -1 -1 -1 -1 -2 -1
12 11 15 20 19 17 13 5 -2 -4 -2 4 12 14 14 13 14 16 16 10 3 1 2 1 0 -1 -1 -1 -1 -1 -1 -0 1 1 1 1 1 0 0 0 0 1 1 0 0 -0 -0 -1 -1 -1 -1 -1 -1 -1 -1 -1 -1 -1 -1 -2 -1 -1 -1 -1 -1 -1 -2 -2 -1
8 11 16 18 19 18 14 5 -0 2 10 18 21 20 16 12 14 16 18 16 11 11 10 4 1 -0 -1 -2 -1 -1 -1 -0 1 1 1 0 -0 -0 0 1 1 1 1 1 0 -0 -0 -1 -1 -1 -1 -1 -1 -0 -1 -1 -2 -2 -2 -2 -2 -2 -2 -1 -1 -1 -2 -2 -2
6 4 4 4 7 9 8 5 5 7 11 14 16 17 17 21 27 29 28 26 29 25 17 4 1 -1 -1 -2 -1 -1 -0 -0 0 0 -0 -0 -0 -0 0 1 1 1 1 0 -0 -0 -1 -1 -1 -1 -1 -1 -0 -0 -0 -2 -2 -2 -2 -2 -1 -1 -1 -1 -1 -1 -1 -1 -1
11 12 12 10 7 5 6 12 16 24 29 26 24 23 23 22 26 27 27 27 25 20 13 3 0 -1 -1 -1 -0 -0 -0 0 -0 -0 -1 -1 -1 -1 -0 0 1 1 0 -0 -0 -1 -1 -1 -1 -2 -1 -1 -1 -0 -1 -2 -2 -2 -2 -2 -1 -1 -1 -1 -1 -1 -0 1 -0
6 9 11 11 5 1 3 12 19 40 61 70 56 44 34 26 22 23 26 27 21 15 10 3 0 -0 -0 0 0 0 0 0 -0 -1 -1 -1 -1 -1 -1 -0 -0 0 0 -0 -0 -1 -1 -1 -2 -1 -1 -1 -1 -1 -0 -1 -1 -2 -2 -2 -2 -1 -1 -2 -2 -2 -1 -0 -0
-1 -0 1 2 1 -1 1 8 12 18 31 54 55 45 31 20 15 15 17 16 18 17 13 6 2 1 1 1 1 1 1 1 0 -0 -1 -1 -1 -1 -1 -1 -1 -1 -1 -1 -1 -1 -1 -1 -2 -1 -1 -1 -1 -1 -1 -1 -1 -1 -1 -1 -2 -2 -2 -2 -2 -2 -1 -0 -0
-1 -3 -5 -4 -1 -0 1 5 8 5 2 6 12 12 9 7 4 3 3 4 12 16 15 11 8 4 1 2 2 2 1 1 1 1 -0 -0 -1 -1 -1 -1 -1 -1 -1 -1 -1 -1 -1 -1 -2 -1 -1 -1 -1 -1 -1 -0 -1 -1 -1 -1 -1 -1 -2 -1 -2 -1 -1 0 -0
1 -3 -5 -7 -5 -3 0 4 4 3 1 -1 -4 -5 -3 -0 -1 -1 -1 3 8 11 13 13 11 7 3 2 2 2 2 2 1 1 0 -1 -1 -1 -1 -2 -2 -2 -2 -2 -2 -2 -2 -2 -2 -2 -1 -1 -1 -1 -0 0 -0 -0 -1 -0 -1 -1 -1 -1 -1 -2 -1 -1 -0
6 -0 -4 -5 -6 -5 -3 -1 -1 0 2 3 -0 -2 -2 -1 -1 1 3 7 9 11 14 16 14 11 7 3 2 2 2 2 1 0 -0 -1 -2 -2 -2 -2 -2 -2 -2 -2 -2 -2 -2 -2 -2 -2 -2 -1 -1 -0 0 1 1 0 -0 -0 -0 -1 -1 -1 -1 -1 -1 -1 -0
6 1 -1 -3 -4 -4 -4 -4 -2 1 4 3 1 -0 -1 -1 1 4 8 12 15 19 24 28 23 16 9 4 3 3 2 1 0 -0 -1 -1 -1 -2 -2 -2 -3 -3 -3 -2 -2 -2 -2 -2 -2 -2 -2 -1 -1 -0 0 1 1 1 0 0 0 0 -0 -1 -1 -1 -1 -1 -1
6 3 1 -0 -2 -3 -4 -4 0 4 5 4 1 -1 -2 -1 2 7 13 18 22 25 29 34 29 20 10 4 3 2 1 -0 -1 -1 0 3 2 0 -2 -2 -3 -3 -3 -3 -2 -2 -2 -2 -2 -2 -2 -2 -1 -1 -0 0 1 1 0 0 0 -0 -0 -1 -1 -1 -1 -2 -1
5 4 2 1 -1 -2 -2 -2 2 6 6 4 -0 -1 -0 2 8 14 18 22 22 23 26 30 26 17 8 3 2 0 -1 -2 -1 0 3 7 7 3 -1 -3 -3 -3 -3 -3 -3 -2 -2 -2 -1 -1 -1 -2 -1 -1 -1 -0 0 0 0 0 -0 -0 -1 -1 -1 -1 -1 -1 -1
4 3 2 0 -0 -1 -1 -0 4 6 6 3 1 2 5 9 14 18 20 18 18 19 20 21 16 10 4 1 -1 -1 -2 -2 0 5 9 12 10 6 1 -4 -3 -3 -4 -3 -3 -2 -2 -2 -1 -1 -1 -2 -2 -1 -1 -0 -0 0 0 0 -0 -0 -1 -1 -1 -1 -1 -1 -1
1 1 1 1 1 0 -0 -1 2 3 4 2 4 8 12 15 18 18 17 16 16 17 17 14 9 5 1 -2 -2 -2 -3 -3 2 8 14 17 14 8 2 -4 -3 -3 -3 -3 -3 -2 -2 -2 -1 -1 -1 -1 -1 -1 -1 -1 -0 -0 -0 -0 -0 -0 -0 -0 -0 -0 -0 -0 -0
-1 1 2 3 1 -0 -1 -1 -0 0 2 4 8 12 16 19 21 21 21 20 18 17 16 13 6 1 -2 -3 -4 -4 -3 -3 -1 2 5 6 7 5 1 -4 -3 -3 -3 -3 -2 -2 -2 -1 -1 -1 -1 -1 -1 -1 -1 -0 -0 -0 -0 0 0 0 0 0 0 0 0 0 0
0 2 3 2 -0 -1 -2 -1 -0 2 4 9 14 18 23 27 30 30 28 22 16 11 8 6 2 -1 -4 -4 -4 -4 -4 -3 -3 -3 -3 -3 -2 -1 -1 -2 -2 -2 -2 -2 -2 -1 -1 -1 -1 -0 -0 -0 -0 -0 -0 -0 -0 -0 -0 0 0 0 0 1 0 0 0 0 0
4 3 2 -0 -2 -2 -1 1 5 9 14 18 23 28 32 34 31 26 19 12 7 4 2 2 1 -0 -2 -2 -2 -3 -4 -4 -4 -4 -4 -3 -3 -3 -2 -1 -1 -1 -1 -1 -1 -1 -1 -1 -0 -0 0 0 0 0 -0 -0 -0 -0 -0 0 0 0 1 1 0 0 -0 -0 -0
5 2 -0 -2 0 3 6 8 12 14 16 16 18 20 21 20 17 14 9 5 3 1 0 1 1 1 1 2 1 -2 -4 -4 -4 -4 -4 -4 -4 -3 -2 -1 -1 -0 -0 0 -0 -0 -0 -0 -0 0 0 0 0 -0 -0 -0 -0 -0 -0 0 0 1 1 1 0 -0 -1 -1 -1
5 1 -1 -1 5 9 12 13 13 12 10 8 7 7 6 5 7 8 8 5 2 1 0 1 3 1 -0 -0 -1 -2 -3 -3 -4 -4 -4 -4 -4 -3 -2 -1 -1 -0 0 1 1 0 0 1 1 1 0 0 -0 -0 -0 -0 -0 -0 0 0 0 1 1 1 0 -0 -1 -1 -1
5 1 -0 2 6 8 8 8 8 8 7 7 6 5 4 4 5 6 7 4 2 0 -0 -1 -0 -1 -1 -2 -2 -2 -2 -3 -3 -4 -4 -4 -4 -3 -2 -1 -1 -0 0 1 1 1 1 1 1 1 0 -0 -0 -0 -0 -0 -0 0 0 0 0 0 0 0 -0 -0 -1 -1 -1
4 3 3 6 8 6 4 1 2 4 7 8 8 7 7 6 6 5 4 2 1 -0 -1 -2 -2 -2 -2 -2 -1 -1 -2 -2 -3 -3 -3 -3 -3 -3 -2 -1 -1 -0 0 1 2 2 2 2 1 1 0 0 -0 -1 -0 -0 -0 0 0 0 0 -0 -0 -0 -0 -0 -1 -1 -1
2 3 5 8 10 9 7 4 4 4 5 6 6 6 5 4 3 2 0 -1 -1 -1 -1 -1 -1 -1 -1 -2 -1 -1 -2 -2 -3 -3 -3 -3 -3 -2 -2 -1 -0 0 1 2 2 2 2 2 2 1 1 1 -0 -1 -1 -1 -0 -0 0 0 0 0 -0 -1 -1 -1 -1 -1 -1
1 2 4 6 8 10 9 7 6 4 3 2 1 1 -0 -0 -1 -2 -3 -4 -3 -2 -1 -1 -1 -1 -1 -1 -1 -1 -2 -2 -2 -3 -3 -3 -2 -2 -1 -1 -0 1 2 2 2 2 2 2 2 2 2 1 0 -1 -2 -2 -1 -1 -0 -0 0 1 -0 -1 -1 -2 -2 -2 -1
-0 0 1 2 5 7 8 7 6 4 3 1 -1 -2 -3 -3 -3 -4 -4 -3 -2 -2 -1 -1 -1 -1 -0 -1 -1 -1 -1 -2 -2 -3 -3 -2 -2 -1 -1 -0 0 1 1 2 2 2 2 2 2 2 2 1 0 -1 -2 -3 -2 -2 -1 -1 -0 -0 0 -0 -1 -2 -2 -3 -2
-1 -1 -1 0 1 3 4 6 6 5 5 5 3 2 1 0 -1 -2 -2 -1 -1 -1 -1 -1 -0 -0 0 -0 -1 -1 -1 -2 -2 -2 -2 -2 -1 -1 -0 0 0 1 1 2 2 2 2 2 1 1 1 1 0 -1 -2 -2 -2 -2 -2 -2 -2 -1 -0 -0 -1 -1 -2 -3 -3
-1 -1 -0 -0 -1 -1 -0 1 1 2 3 4 3 3 3 2 1 0 -0 -1 -1 -1 -2 -1 -0 -0 -0 -1 -0 -0 -1 -2 -2 -2 -1 -1 -1 -0 0 0 0 0 1 1 1 1 2 1 0 -0 -0 0 -0 -1 -1 -1 -2 -2 -2 -2 -2 -2 -1 -1 -1 -1 -1 -2 -2
-0 0 0 0 -0 -1 -2 -3 -3 -3 -2 -2 -2 -1 -0 -0 -0 -1 -1 -2 -2 -2 -2 -1 -1 -1 -0 -0 0 -0 -1 -2 -1 -1 -1 -1 -0 -0 -0 -0 -0 0 1 1 1 1 1 0 -0 -1 -1 -0 -0 -1 -1 -1 -1 -1 -2 -2 -2 -2 -2 -2 -1 -1 -1 -1 -2
0 0 0 0 -0 -1 -2 -3 -3 -3 -3 -3 -3 -2 -2 -2 -2 -3 -3 -3 -3 -2 -1 -0 -1 -1 -0 0 -0 -1 -1 -1 -0 -0 -0 0 -0 -1 -1 -1 -1 -0 0 0 -0 -0 -0 -0 -0 -1 -1 -1 -1 -1 -1 -0 -0 -1 -1 -2 -2 -2 -2 -2 -2 -2 -2 -1 -2
-0 -0 -0 -0 -0 -1 -1 -1 -2 -2 -2 -2 -2 -2 -2 -2 -3 -3 -3 -3 -2 -1 -0 0 0 0 0 0 -0 -1 -0 0 -0 -0 -0 0 -1 -1 -1 -1 -1 -1 -1 -0 -1 -0 -0 -0 -0 -1 -1 -1 -1 -1 -1 -0 -0 -1 -1 -2 -2 -2 -2 -2 -2 -2 -2 -2 -1
-1 -0 -0 -0 -1 -1 -1 -1 -1 -1 -1 -1 -1 -1 -1 -2 -2 -2 -2 -2 -1 0 1 1 1 1 1 0 -0 -0 -0 0 0 -0 -0 -0 -1 -2 -2 -1 -1 -1 -1 -1 -0 -0 -0 -0 -0 -0 -0 -1 -1 -1 -1 -1 -1 -1 -1 -2 -2 -1 -2 -2 -2 -2 -2 -2 -2
-0 -0 -0 -1 -1 -1 -1 -2 -1 -1 -1 -1 -1 -1 -1 -1 -1 -1 -1 -0 0 1 1 1 1 1 0 0 -0 -1 -1 -0 -0 -0 -1 -1 -1 -2 -2 -1 -1 -0 -0 -1 -0 -0 0 -0 -0 -0 -0 -0 -1 -1 -1 -2 -2 -2 -2 -2 -2 -1 -1 -1 -1 -2 -2 -2 -2
0 0 -0 -0 -0 -1 -1 -1 -1 -1 -1 -1 -1 -1 -0 -0 -0 -0 -0 0 0 0 0 1 1 0 -1 -1 -1 -1 -1 -1 -1 -1 -1 -1 -1 -1 -1 -1 -0 -0 -0 -1 -1 -0 0 0 0 0 0 -1 -1 -2 -2 -2 -2 -2 -2 -2 -2 -1 -1 -1 -1 -2 -2 -2 -2
1 0 0 -0 -0 -0 -0 -1 -1 -1 -0 -0 -0 -0 -0 -0 0 0 0 0 -0 -1 -1 -0 -0 -1 -1 -1 -1 -1 -1 -1 -1 -1 -1 -0 -0 -0 -1 -1 -0 -0 -0 -0 -0 0 1 0 0 0 -0 -1 -2 -2 -2 -2 -2 -2 -1 -1 -2 -2 -2 -2 -2 -2 -2 -2 -2
1 0 0 -0 -0 -0 -0 -0 -0 -0 -0 -0 0 0 0 0 0 0 0 0 -0 -1 -1 -0 -1 -1 -1 -1 -1 -1 -1 -0 -0 -0 -0 1 1 -0 -1 -1 -1 -0 -0 -0 -0 0 0 0 -0 -0 -1 -1 -2 -3 -2 -2 -2 -1 -1 -1 -2 -2 -2 -2 -2 -2 -2 -1 -2
1 0 -0 -0 -0 -1 -1 -0 -1 -1 -0 0 0 1 0 0 0 0 0 0 -0 -0 -0 0 -1 -1 -1 0 -0 -1 -1 0 0 -0 -0 1 1 -0 -1 -1 -1 -0 0 -0 -0 -0 -0 -0 -1 -1 -1 -1 -2 -2 -2 -2 -2 -1 -1 -2 -3 -3 -3 -3 -3 -2 -2 -2 -2
-0 -0 -1 -1 -1 -1 -1 -1 -1 -0 -0 0 0 0 0 0 -0 -0 0 0 0 0 0 0 -0 -0 -0 0 -0 -0 -0 0 0 0 0 0 1 0 -1 -2 -1 -0 0 -0 -1 -1 -0 -0 -1 -1 -1 -1 -1 -2 -2 -1 -2 -1 -1 -2 -3 -3 -3 -3 -3 -3 -3 -3 -2
-1 -1 -1 -1 -1 -1 -1 -1 -0 -0 0 0 0 -0 -0 -0 -0 -0 -0 -0 -0 0 0 0 -0 -0 0 0 -0 -0 0 1 1 0 0 0 0 0 -0 -2 -1 -1 -0 -0 -1 -1 -1 -0 -1 -1 -1 -1 -1 -1 -1 -1 -1 -1 -1 -1 -2 -3 -4 -4 -4 -4 -4 -4 -3
-1 -1 -1 -1 -0 -0 -0 -0 -0 0 0 0 -0 -0 -0 -0 -1 -1 -1 -0 -0 -0 0 -0 -0 -0 0 0 0 0 0 0 0 -0 -0 -0 -0 -0 -0 -1 -1 -1 -0 -0 -1 -1 -1 -0 -1 -1 -1 -1 -1 -1 -1 -1 -1 -1 -1 -2 -3 -3 -4 -4 -4 -4 -4 -4 -3
Height
5752 5754 5757 5759 5760 5761 5762 5761 5762 5762 5763 5766 5767 5767 5767 5768 5768 5767 5767 5766 5766 5766 5767 5768 5767 5768 5768 5769 5770 5770 5771 5771 5772 5772 5773 5773 5773 5774 5774 5774 5774 5775 5775 5775 5775 5775 5775 5775 5775 5775 5775 5775 5775 5775 5775 5774 5774 5774 5774 5773 5773 5773 5773 5773 5772 5772 5772 5772 5772
5750 5753 5755 5757 5757 5757 5757 5757 5757 5759 5760 5762 5763 5764 5765 5766 5766 5766 5764 5762 5762 5763 5764 5764 5764 5765 5766 5766 5767 5767 5768 5768 5769 5770 5770 5771 5771 5771 5771 5771 5771 5772 5772 5772 5772 5772 5772 5772 5772 5772 5772 5772 5772 5772 5771 5771 5771 5771 5771 5770 5770 5770 5770 5770 5769 5769 5769 5769 5769
5749 5750 5752 5754 5754 5755 5755 5754 5757 5757 5758 5760 5762 5762 5762 5763 5763 5761 5759 5759 5760 5761 5761 5761 5762 5762 5763 5763 5764 5764 5765 5766 5766 5767 5767 5767 5768 5768 5768 5768 5768 5769 5769 5769 5769 5769 5769 5769 5769 5769 5769 5769 5769 5768 5768 5768 5768 5768 5767 5767 5767 5767 5767 5767 5766 5766 5766 5766 5766
5747 5749 5751 5753 5754 5754 5753 5754 5756 5758 5759 5760 5759 5759 5760 5760 5761 5759 5758 5757 5757 5757 5757 5758 5759 5759 5760 5760 5761 5762 5762 5762 5763 5764 5764 5765 5765 5765 5765 5765 5766 5766 5766 5766 5766 5766 5766 5766 5766 5766 5766 5766 5766 5766 5765 5765 5765 5765 5764 5764 5764 5764 5764 5763 5763 5763 5763 5763 5762
5746 5747 5749 5751 5754 5754 5753 5751 5753 5756 5758 5759 5760 5759 5759 5758 5758 5757 5755 5754 5754 5753 5753 5754 5755 5756 5757 5757 5758 5758 5759 5760 5760 5761 5761 5762 5762 5762 5762 5762 5762 5762 5762 5762 5763 5762 5762 5763 5763 5763 5763 5762 5762 5762 5762 5762 5762 5762 5761 5761 5761 5761 5761 5760 5760 5760 5760 5760 5760
5744 5745 5747 5748 5749 5750 5751 5751 5753 5754 5755 5754 5757 5758 5757 5758 5757 5756 5754 5754 5754 5751 5748 5750 5751 5752 5753 5754 5755 5755 5756 5757 5757 5757 5758 5758 5758 5759 5759 5759 5759 5759 5759 5759 5760 5760 5759 5760 5760 5759 5759 5760 5760 5759 5759 5759 5758 5758 5758 5758 5758 5758 5758 5757 5757 5757 5757 5757 5757
5743 5745 5747 5747 5746 5747 5747 5749 5753 5756 5755 5753 5753 5754 5754 5754 5753 5752 5753 5754 5751 5748 5746 5747 5748 5749 5750 5751 5752 5752 5753 5753 5754 5754 5755 5755 5755 5756 5756 5756 5756 5757 5757 5757 5757 5757 5757 5757 5757 5757 5757 5757 5757 5757 5756 5756 5756 5756 5755 5755 5755 5755 5755 5754 5754 5754 5754 5754 5755
5739 5741 5742 5742 5743 5744 5746 5748 5752 5755 5756 5753 5752 5750 5749 5749 5750 5751 5752 5752 5749 5746 5745 5745 5745 5746 5747 5747 5748 5749 5750 5750 5751 5751 5752 5752 5752 5752 5753 5753 5753 5753 5754 5754 5754 5754 5754 5754 5754 5754 5754 5754 5754 5754 5753 5753 5753 5753 5752 5752 5752 5752 5752 5751 5751 5751 5751 5751 5751
5737 5738 5739 5740 5742 5743 5744 5746 5747 5747 5748 5751 5749 5747 5746 5746 5747 5748 5748 5748 5747 5745 5743 5742 5742 5743 5743 5744 5745 5746 5747 5747 5748 5748 5749 5749 5749 5750 5750 5750 5751 5751 5751 5751 5751 5751 5751 5751 5751 5751 5751 5751 5751 5751 5751 5750 5750 5750 5750 5750 5749 5749 5749 5748 5748 5748 5748 5748 5748
5735 5737 5738 5739 5739 5740 5742 5742 5743 5742 5742 5744 5744 5744 5744 5744 5743 5743 5743 5744 5744 5743 5741 5740 5739 5740 5740 5741 5742 5743 5744 5744 5745 5746 5746 5746 5747 5747 5747 5748 5748 5748 5748 5748 5749 5748 5748 5748 5748 5748 5748 5748 5748 5748 5747 5747 5747 5747 5747 5747 5747 5746 5746 5746 5746 5746 5746 5746 5746
5733 5734 5736 5736 5737 5737 5738 5738 5739 5739 5739 5740 5740 5740 5741 5742 5741 5741 5741 5741 5741 5741 5740 5739 5737 5737 5737 5738 5739 5740 5741 5742 5742 5743 5743 5744 5744 5745 5745 5745 5746 5746 5746 5746 5746 5746 5746 5746 5745 5745 5745 5745 5745 5745 5745 5745 5745 5744 5744 5744 5744 5743 5743 5743 5743 5743 5743 5743 5743
5729 5731 5732 5733 5734 5735 5735 5736 5736 5737 5737 5737 5738 5738 5739 5740 5739 5739 5739 5739 5739 5739 5739 5738 5736 5734 5734 5735 5736 5737 5738 5739 5740 5740 5741 5741 5742 5742 5742 5743 5743 5743 5743 5743 5743 5743 5743 5743 5742 5742 5742 5742 5742 5742 5742 5742 5742 5742 5741 5741 5741 5741 5740 5740 5740 5740 5740 5740 5740
5727 5728 5729 5730 5731 5732 5732 5733 5734 5734 5734 5733 5734 5735 5736 5737 5737 5737 5737 5737 5739 5740 5740 5739 5735 5731 5731 5732 5733 5734 5735 5736 5737 5737 5738 5738 5739 5739 5739 5740 5740 5740 5741 5741 5740 5740 5740 5740 5740 5740 5740 5739 5739 5739 5739 5739 5739 5739 5738 5738 5738 5738 5737 5737 5737 5737 5737 5737 5737
5724 5725 5726 5727 5727 5728 5729 5730 5731 5731 5731 5730 5730 5731 5732 5732 5733 5733 5734 5736 5737 5738 5738 5737 5732 5728 5727 5729 5730 5732 5732 5733 5734 5735 5735 5735 5736 5736 5736 5737 5737 5737 5737 5737 5737 5737 5737 5737 5737 5737 5737 5737 5737 5736 5736 5736 5736 5736 5736 5735 5735 5735 5735 5735 5734 5734 5734 5734 5734
5721 5722 5722 5723 5724 5725 5726 5727 5727 5728 5727 5727 5727 5727 5728 5729 5730 5730 5731 5732 5733 5734 5734 5732 5728 5725 5725 5727 5728 5729 5730 5731 5731 5732 5732 5732 5732 5732 5733 5733 5734 5734 5734 5734 5734 5734 5734 5734 5734 5734 5734 5734 5733 5733 5733 5733 5733 5733 5733 5732 5732 5732 5732 5732 5732 5731 5731 5731 5731
5718 5719 5720 5720 5721 5722 5723 5724 5725 5725 5724 5723 5724 5725 5726 5726 5727 5727 5728 5728 5728 5728 5727 5725 5723 5722 5723 5724 5725 5726 5727 5728 5729 5729 5729 5729 5729 5729 5730 5730 5730 5731 5731 5731 5731 5731 5731 5731 5731 5731 5731 5731 5730 5730 5730 5730 5730 5730 5730 5730 5729 5729 5729 5729 5728 5728 5728 5727 5727
5715 5716 5717 5717 5718 5719 5720 5721 5722 5722 5721 5721 5722 5722 5723 5724 5724 5724 5724 5724 5723 5723 5722 5720 5720 5720 5721 5722 5723 5724 5725 5726 5727 5728 5728 5727 5727 5727 5727 5727 5727 5728 5728 5728 5728 5728 5728 5728 5728 5728 5727 5727 5727 5727 5727 5727 5727 5727 5727 5727 5726 5726 5726 5725 5725 5724 5724 5723 5723
5712 5713 5714 5715 5716 5716 5717 5717 5717 5718 5718 5719 5720 5721 5722 5722 5722 5722 5721 5720 5719 5719 5718 5717 5717 5718 5719 5720 5721 5722 5723 5724 5724 5725 5725 5725 5724 5724 5724 5724 5725 5725 5725 5725 5725 5725 5725 5725 5725 5725 5724 5724 5724 5724 5724 5724 5724 5724 5723 5723 5723 5722 5722 5722 5721 5721 5720 5719 5719
5710 5711 5712 5712 5713 5713 5713 5713 5714 5714 5715 5717 5718 5719 5720 5720 5720 5720 5718 5716 5714 5714 5714 5715 5715 5716 5717 5718 5719 5719 5720 5721 5721 5721 5721 5721 5721 5722 5722 5722 5722 5722 5722 5722 5722 5722 5722 5722 5722 5722 5722 5721 5721 5721 5721 5721 5721 5720 5720 5720 5719 5719 5718 5718 5717 5717 5716 5715 5715
5707 5708 5709 5710 5710 5710 5710 5711 5711 5712 5714 5715 5716 5717 5717 5716 5715 5713 5711 5710 5710 5710 5711 5711 5712 5713 5714 5715 5716 5717 5717 5717 5718 5718 5718 5718 5719 5719 5719 5719 5719 5719 5719 5719 5719 5719 5719 5718 5718 5718 5718 5718 5718 5718 5718 5717 5717 5717 5717 5716 5716 5715 5714 5714 5713 5712 5712 5711 5711
5705 5705 5706 5707 5707 5708 5708 5708 5709 5710 5710 5709 5709 5708 5708 5707 5707 5707 5706 5706 5707 5707 5708 5709 5709 5710 5711 5712 5712 5713 5714 5714 5715 5715 5715 5715 5716 5716 5716 5716 5716 5716 5716 5716 5716 5716 5715 5715 5715 5715 5715 5715 5715 5715 5714 5714 5714 5713 5713 5712 5712 5711 5710 5710 5709 5708 5708 5707 5707
5702 5702 5703 5704 5705 5706 5706 5705 5705 5705 5704 5703 5703 5702 5702 5702 5702 5703 5704 5704 5704 5705 5706 5706 5707 5707 5708 5709 5709 5710 5710 5711 5711 5712 5712 5712 5712 5712 5712 5712 5712 5712 5712 5712 5712 5712 5712 5712 5712 5712 5712 5712 5712 5711 5711 5711 5710 5710 5709 5708 5708 5707 5707 5706 5705 5704 5704 5703 5702
5699 5700 5700 5701 5702 5702 5701 5701 5700 5700 5700 5700 5700 5700 5699 5699 5699 5700 5700 5701 5702 5702 5702 5703 5704 5704 5705 5706 5706 5707 5707 5707 5708 5708 5708 5709 5709 5709 5709 5709 5709 5709 5709 5709 5709 5709 5709 5709 5709 5709 5708 5708 5708 5707 5707 5707 5707 5706 5705 5705 5704 5703 5703 5702 5701 5701 5700 5699 5698
5695 5696 5696 5697 5697 5697 5697 5697 5697 5697 5697 5697 5697 5697 5697 5696 5696 5697 5697 5698 5698 5699 5699 5700 5701 5701 5702 5702 5703 5703 5703 5704 5704 5705 5705 5705 5706 5706 5706 5706 5706 5706 5706 5706 5706 5706 5706 5706 5705 5705 5705 5705 5704 5704 5703 5703 5702 5702 5702 5701 5700 5700 5699 5698 5697 5697 5696 5695 5695
5691 5692 5692 5693 5693 5693 5693 5694 5694 5695 5695 5694 5694 5694 5694 5694 5694 5694 5695 5695 5696 5696 5697 5697 5698 5698 5699 5699 5700 5700 5700 5701 5701 5701 5702 5702 5702 5702 5703 5703 5703 5703 5703 5703 5703 5702 5702 5702 5702 5702 5701 5701 5700 5700 5699 5699 5699 5698 5698 5697 5697 5696 5695 5694 5694 5693 5692 5692 5691
5688 5689 5689 5689 5689 5689 5689 5690 5690 5691 5691 5692 5692 5692 5692 5692 5692 5692 5693 5693 5693 5694 5694 5695 5695 5696 5696 5696 5697 5697 5697 5697 5698 5698 5699 5699 5699 5699 5700 5700 5700 5700 5700 5700 5699 5699 5699 5698 5698 5697 5697 5697 5696 5696 5695 5695 5695 5694 5694 5693 5693 5692 5691 5690 5690 5689 5688 5688 5687
5686 5687 5687 5687 5686 5686 5685 5685 5686 5686 5687 5687 5687 5688 5688 5688 5689 5689 5690 5690 5691 5691 5691 5692 5692 5692 5693 5693 5694 5694 5694 5694 5695 5695 5696 5696 5696 5696 5697 5697 5697 5696 5696 5696 5696 5695 5695 5694 5694 5694 5693 5692 5692 5692 5691 5691 5690 5690 5690 5689 5689 5688 5687 5687 5686 5685 5684 5684 5683
5684 5685 5685 5685 5685 5685 5684 5683 5683 5683 5683 5683 5684 5684 5684 5685 5686 5686 5687 5687 5687 5688 5688 5689 5689 5690 5690 5690 5691 5691 5691 5692 5692 5692 5692 5693 5693 5693 5693 5693 5693 5692 5692 5692 5692 5691 5691 5690 5690 5690 5689 5689 5688 5687 5687 5687 5686 5686 5686 5685 5685 5684 5683 5683 5682 5681 5680 5680 5679
5682 5682 5683 5683 5683 5683 5683 5682 5682 5682 5682 5682 5682 5682 5682 5682 5683 5683 5684 5684 5685 5686 5686 5686 5687 5687 5687 5687 5687 5687 5688 5688 5688 5689 5689 5689 5689 5689 5689 5689 5689 5689 5688 5688 5688 5687 5687 5687 5686 5686 5685 5685 5684 5684 5683 5683 5682 5682 5682 5681 5681 5680 5680 5679 5678 5677 5677 5676 5675
5679 5679 5680 5680 5680 5681 5681 5681 5680 5680 5680 5680 5680 5680 5680 5680 5681 5681 5682 5682 5682 5683 5683 5683 5684 5684 5684 5684 5684 5684 5685 5685 5685 5685 5685 5685 5685 5685 5685 5685 5685 5685 5684 5684 5684 5683 5683 5682 5682 5682 5681 5681 5680 5680 5680 5679 5679 5678 5677 5677 5677 5676 5676 5675 5674 5674 5673 5672 5671
5675 5676 5676 5677 5677 5677 5677 5677 5677 5677 5677 5678 5678 5678 5678 5678 5678 5678 5679 5679 5680 5680 5680 5681 5681 5681 5681 5681 5681 5681 5681 5681 5681 5682 5682 5682 5681 5681 5681 5681 5681 5681 5681 5680 5680 5680 5679 5679 5678 5678 5677 5677 5677 5676 5676 5675 5675 5674 5674 5673 5673 5672 5672 5671 5671 5670 5669 5668 5667
5672 5672 5672 5673 5673 5673 5673 5674 5674 5674 5674 5675 5675 5675 5675 5675 5676 5676 5676 5676 5677 5677 5677 5677 5677 5677 5677 5677 5678 5678 5678 5678 5678 5678 5678 5678 5677 5677 5677 5677 5677 5677 5677 5677 5676 5676 5676 5675 5675 5674 5674 5673 5673 5672 5672 5672 5671 5670 5670 5669 5669 5668 5668 5667 5667 5666 5666 5665 5664
5668 5669 5669 5669 5670 5670 5670 5671 5671 5671 5671 5672 5672 5672 5672 5672 5672 5672 5673 5673 5673 5673 5673 5674 5674 5674 5674 5674 5674 5674 5674 5674 5674 5674 5674 5674 5674 5674 5674 5674 5673 5673 5673 5673 5672 5672 5672 5672 5671 5671 5670 5669 5669 5668 5668 5668 5667 5667 5666 5666 5665 5665 5664 5664 5663 5662 5662 5661 5660
5665 5666 5666 5666 5667 5667 5667 5667 5667 5668 5668 5668 5668 5669 5669 5669 5669 5669 5669 5670 5670 5670 5670 5670 5671 5671 5671 5671 5671 5671 5671 5671 5671 5671 5671 5670 5670 5670 5670 5670 5670 5670 5670 5669 5669 5668 5668 5668 5667 5667 5666 5666 5665 5665 5664 5664 5664 5663 5663 5662 5662 5661 5661 5660 5660 5659 5658 5658 5657
5662 5662 5663 5663 5663 5664 5664 5664 5664 5665 5665 5665 5666 5666 5666 5666 5666 5666 5667 5667 5667 5667 5667 5667 5667 5667 5667 5667 5667 5667 5667 5667 5667 5667 5667 5667 5667 5667 5667 5666 5666 5666 5666 5666 5665 5665 5665 5664 5664 5663 5663 5662 5662 5661 5661 5661 5660 5660 5659 5659 5658 5658 5657 5657 5656 5656 5655 5654 5654
5659 5660 5660 5660 5660 5661 5661 5661 5662 5662 5662 5662 5662 5663 5663 5663 5663 5663 5663 5664 5664 5664 5664 5664 5664 5664 5664 5664 5664 5664 5664 5664 5664 5664 5663 5663 5663 5663 5663 5663 5662 5663 5662 5662 5662 5662 5661 5661 5660 5660 5659 5659 5658 5658 5657 5657 5657 5656 5656 5655 5655 5654 5654 5653 5653 5652 5652 5651 5650
5656 5657 5657 5657 5657 5658 5658 5658 5659 5659 5659 5659 5660 5660 5660 5660 5660 5661 5661 5661 5661 5661 5661 5661 5661 5661 5661 5661 5661 5661 5661 5661 5660 5660 5660 5660 5660 5660 5659 5659 5659 5659 5659 5659 5658 5658 5658 5657 5657 5657 5656 5655 5655 5654 5654 5654 5653 5653 5652 5652 5652 5651 5651 5650 5650 5649 5648 5647 5647
5653 5654 5654 5654 5655 5655 5655 5656 5656 5656 5656 5657 5657 5657 5657 5657 5657 5657 5658 5658 5658 5658 5658 5657 5658 5658 5657 5657 5657 5657 5657 5657 5657 5657 5657 5657 5657 5656 5656 5656 5656 5656 5656 5656 5655 5655 5654 5654 5654 5653 5653 5652 5652 5651 5651 5651 5650 5650 5649 5649 5648 5647 5647 5647 5646 5645 5644 5644 5643
5650 5651 5651 5652 5652 5652 5652 5653 5653 5653 5653 5654 5654 5654 5654 5655 5655 5655 5655 5655 5655 5655 5655 5654 5654 5654 5654 5654 5654 5654 5654 5654 5654 5654 5653 5653 5653 5653 5653 5652 5652 5652 5652 5652 5652 5652 5651 5651 5650 5650 5649 5649 5648 5648 5648 5647 5647 5647 5646 5646 5645 5644 5643 5643 5642 5642 5641 5640 5640
5647 5648 5648 5648 5649 5649 5650 5650 5650 5650 5651 5651 5651 5652 5652 5652 5652 5652 5652 5652 5652 5652 5652 5651 5651 5651 5651 5651 5651 5651 5651 5651 5651 5650 5650 5650 5650 5649 5649 5649 5649 5649 5649 5649 5649 5648 5648 5647 5647 5647 5646 5646 5645 5645 5645 5645 5644 5643 5643 5642 5642 5641 5640 5639 5639 5638 5637 5637 5636
5645 5645 5645 5646 5646 5646 5647 5647 5647 5647 5648 5648 5648 5648 5648 5648 5648 5648 5648 5649 5648 5648 5648 5648 5648 5648 5648 5648 5648 5648 5647 5647 5647 5647 5647 5647 5647 5646 5646 5646 5646 5646 5645 5645 5645 5645 5645 5644 5644 5644 5643 5643 5642 5642 5642 5642 5641 5641 5640 5639 5638 5638 5637 5636 5635 5635 5634 5633 5632